• In Netherlands
  • List of Countries
  • For 7 days
  • Water Temperature
  • Satellite Maps
  • Weather Map
  • Weather Widgets
  • user-avatar
    Login

    Hourly Weather Belize

    Today, 24 September, Sunday

    Time Temperature Precipitation Wind Pressure Humidity
    00:00 +27°C° 0 mm 3 mps 756 mmHg 93%
    01:00 +27°C° 0.1 mm 3 mps 756 mmHg 94%
    02:00 +27°C° 0.1 mm 3 mps 755 mmHg 95%
    03:00 +27°C° 0.1 mm 2 mps 755 mmHg 96%
    04:00 +27°C° 0.4 mm 2 mps 755 mmHg 96%
    05:00 +27°C° 0.4 mm 2 mps 755 mmHg 96%
    06:00 +27°C° 0.4 mm 3 mps 755 mmHg 96%
    07:00 +28°C° 0.9 mm 3 mps 756 mmHg 91%
    08:00 +30°C° 0.9 mm 3 mps 756 mmHg 85%
    09:00 +33°C° 0.9 mm 3 mps 756 mmHg 79%
    10:00 +33°C° 0.4 mm 3 mps 756 mmHg 75%
    11:00 +34°C° 0.4 mm 3 mps 756 mmHg 71%
    12:00 +35°C° 0.4 mm 3 mps 755 mmHg 67%
    13:00 +35°C° 0.1 mm 4 mps 755 mmHg 64%
    14:00 +35°C° 0.1 mm 4 mps 754 mmHg 62%
    15:00 +35°C° 0.1 mm 4 mps 754 mmHg 60%
    16:00 +34°C° 0.1 mm 4 mps 754 mmHg 67%
    17:00 +32°C° 0.1 mm 4 mps 754 mmHg 75%
    18:00 +29°C° 0.1 mm 4 mps 754 mmHg 82%
    19:00 +29°C° 0.8 mm 4 mps 755 mmHg 87%
    20:00 +28°C° 0.8 mm 4 mps 755 mmHg 91%
    21:00 +27°C° 0.8 mm 4 mps 755 mmHg 95%
    22:00 +27°C° 0.2 mm 4 mps 755 mmHg 95%
    23:00 +27°C° 0.2 mm 3 mps 755 mmHg 95%

    Tomorrow, 25 September, Monday

    Time Temperature Precipitation Wind Pressure Humidity
    00:00 +27°C° 0.2 mm 3 mps 755 mmHg 95%
    01:00 +27°C° 0.2 mm 3 mps 755 mmHg 96%
    02:00 +27°C° 0.2 mm 3 mps 754 mmHg 96%
    03:00 +27°C° 0.2 mm 2 mps 754 mmHg 96%
    04:00 +27°C° 1.3 mm 2 mps 754 mmHg 97%
    05:00 +26°C° 1.3 mm 3 mps 754 mmHg 97%
    06:00 +26°C° 1.3 mm 3 mps 754 mmHg 98%
    07:00 +28°C° 0.8 mm 3 mps 755 mmHg 93%
    08:00 +29°C° 0.8 mm 3 mps 755 mmHg 88%
    09:00 +31°C° 0.8 mm 3 mps 756 mmHg 83%
    10:00 +31°C° 1.3 mm 3 mps 755 mmHg 82%
    11:00 +33°C° 1.3 mm 3 mps 755 mmHg 81%
    12:00 +34°C° 1.3 mm 4 mps 755 mmHg 79%
    13:00 +34°C° 0.4 mm 4 mps 754 mmHg 75%
    14:00 +34°C° 0.4 mm 4 mps 753 mmHg 70%
    15:00 +34°C° 0.4 mm 4 mps 753 mmHg 65%
    16:00 +33°C° 0 mm 4 mps 753 mmHg 70%
    17:00 +32°C° 0 mm 4 mps 753 mmHg 76%
    18:00 +29°C° 0 mm 4 mps 753 mmHg 81%
    19:00 +29°C° 0.9 mm 4 mps 754 mmHg 84%
    20:00 +28°C° 0.9 mm 4 mps 754 mmHg 87%
    21:00 +28°C° 0.9 mm 4 mps 754 mmHg 89%
    22:00 +28°C° 1.4 mm 4 mps 754 mmHg 92%
    23:00 +27°C° 1.4 mm 4 mps 754 mmHg 94%

    Day after tomorrow, 26 September, Tuesday

    Time Temperature Precipitation Wind Pressure Humidity
    00:00 +27°C° 1.4 mm 4 mps 754 mmHg 96%
    01:00 +27°C° 1 mm 4 mps 754 mmHg 96%
    02:00 +27°C° 1 mm 4 mps 754 mmHg 97%
    03:00 +27°C° 1 mm 4 mps 753 mmHg 97%
    04:00 +27°C° 1.4 mm 4 mps 754 mmHg 97%
    05:00 +27°C° 1.4 mm 4 mps 754 mmHg 97%
    06:00 +27°C° 1.4 mm 4 mps 754 mmHg 97%
    07:00 +28°C° 1.3 mm 4 mps 754 mmHg 93%
    08:00 +29°C° 1.3 mm 4 mps 755 mmHg 90%
    09:00 +32°C° 1.3 mm 4 mps 755 mmHg 86%
    10:00 +33°C° 0.6 mm 4 mps 755 mmHg 77%
    11:00 +35°C° 0.6 mm 3 mps 755 mmHg 67%
    12:00 +36°C° 0.6 mm 3 mps 755 mmHg 58%
    13:00 +36°C° 0 mm 3 mps 754 mmHg 58%
    14:00 +36°C° 0 mm 4 mps 753 mmHg 57%
    15:00 +36°C° 0 mm 4 mps 752 mmHg 56%
    16:00 +34°C° 0 mm 4 mps 752 mmHg 66%
    17:00 +33°C° 0 mm 4 mps 753 mmHg 75%
    18:00 +30°C° 0 mm 4 mps 753 mmHg 85%
    19:00 +29°C° 0 mm 4 mps 753 mmHg 88%
    20:00 +29°C° 0 mm 4 mps 754 mmHg 91%
    21:00 +29°C° 0 mm 5 mps 754 mmHg 94%
    22:00 +28°C° 0.9 mm 4 mps 754 mmHg 95%
    23:00 +28°C° 0.9 mm 4 mps 754 mmHg 96%

    27 September, Wednesday

    Time Temperature Precipitation Wind Pressure Humidity
    00:00 +28°C° 0.9 mm 4 mps 754 mmHg 97%
    01:00 +28°C° 1.1 mm 4 mps 753 mmHg 97%
    02:00 +28°C° 1.1 mm 4 mps 753 mmHg 97%
    03:00 +28°C° 1.1 mm 4 mps 753 mmHg 97%
    04:00 +28°C° 1.3 mm 4 mps 753 mmHg 97%
    05:00 +28°C° 1.3 mm 4 mps 753 mmHg 98%
    06:00 +28°C° 1.3 mm 4 mps 753 mmHg 98%
    07:00 +28°C° 0.9 mm 4 mps 754 mmHg 96%
    08:00 +29°C° 0.9 mm 3 mps 755 mmHg 94%
    09:00 +30°C° 0.9 mm 3 mps 755 mmHg 93%
    10:00 +31°C° 0.4 mm 3 mps 755 mmHg 85%
    11:00 +34°C° 0.4 mm 2 mps 754 mmHg 77%
    12:00 +35°C° 0.4 mm 2 mps 754 mmHg 68%
    13:00 +36°C° 0 mm 2 mps 753 mmHg 64%
    14:00 +36°C° 0 mm 2 mps 753 mmHg 59%
    15:00 +37°C° 0 mm 3 mps 752 mmHg 55%
    16:00 +35°C° 0 mm 3 mps 753 mmHg 65%
    17:00 +33°C° 0 mm 3 mps 753 mmHg 74%
    18:00 +30°C° 0 mm 3 mps 753 mmHg 84%
    19:00 +30°C° 0.5 mm 4 mps 754 mmHg 88%
    20:00 +29°C° 0.5 mm 4 mps 755 mmHg 93%
    21:00 +28°C° 0.5 mm 4 mps 755 mmHg 97%
    22:00 +28°C° 0.5 mm 4 mps 755 mmHg 97%
    23:00 +28°C° 0.5 mm 4 mps 755 mmHg 98%

    28 September, Thursday

    Time Temperature Precipitation Wind Pressure Humidity
    00:00 +28°C° 0.5 mm 4 mps 754 mmHg 98%
    01:00 +28°C° 0.2 mm 4 mps 754 mmHg 98%
    02:00 +28°C° 0.2 mm 4 mps 754 mmHg 98%
    03:00 +28°C° 0.2 mm 3 mps 753 mmHg 97%
    04:00 +27°C° 0.5 mm 3 mps 754 mmHg 98%
    05:00 +27°C° 0.5 mm 3 mps 754 mmHg 98%
    06:00 +27°C° 0.5 mm 3 mps 754 mmHg 98%
    07:00 +29°C° 1.2 mm 3 mps 755 mmHg 95%
    08:00 +30°C° 1.2 mm 3 mps 755 mmHg 92%
    09:00 +31°C° 1.2 mm 3 mps 756 mmHg 89%
    10:00 +33°C° 1 mm 3 mps 755 mmHg 87%
    11:00 +33°C° 1 mm 3 mps 755 mmHg 84%
    12:00 +33°C° 1 mm 3 mps 754 mmHg 82%
    13:00 +34°C° 0.1 mm 3 mps 754 mmHg 78%
    14:00 +34°C° 0.1 mm 3 mps 753 mmHg 74%
    15:00 +34°C° 0.1 mm 3 mps 753 mmHg 70%
    16:00 +33°C° 0 mm 3 mps 753 mmHg 75%
    17:00 +32°C° 0 mm 4 mps 753 mmHg 81%
    18:00 +30°C° 0 mm 4 mps 754 mmHg 87%
    19:00 +29°C° 0 mm 4 mps 754 mmHg 89%
    20:00 +29°C° 0 mm 4 mps 755 mmHg 91%
    21:00 +29°C° 0 mm 4 mps 755 mmHg 93%
    22:00 +28°C° 0.2 mm 4 mps 755 mmHg 94%
    23:00 +28°C° 0.2 mm 4 mps 755 mmHg 95%

    29 September, Friday

    Time Temperature Precipitation Wind Pressure Humidity
    00:00 +28°C° 0.2 mm 4 mps 754 mmHg 96%
    01:00 +28°C° 0.1 mm 4 mps 754 mmHg 97%
    02:00 +28°C° 0.1 mm 3 mps 754 mmHg 97%
    03:00 +28°C° 0.1 mm 3 mps 754 mmHg 98%
    04:00 +27°C° 0.4 mm 3 mps 754 mmHg 98%
    05:00 +27°C° 0.4 mm 3 mps 754 mmHg 98%
    06:00 +27°C° 0.4 mm 2 mps 755 mmHg 98%
    07:00 +28°C° 1.1 mm 3 mps 755 mmHg 97%
    08:00 +29°C° 1.1 mm 3 mps 756 mmHg 95%
    09:00 +30°C° 1.1 mm 3 mps 756 mmHg 93%
    10:00 +31°C° 0.2 mm 3 mps 756 mmHg 88%
    11:00 +33°C° 0.2 mm 3 mps 755 mmHg 82%
    12:00 +32°C° 0.2 mm 2 mps 755 mmHg 76%
    13:00 +33°C° 0 mm 3 mps 754 mmHg 74%
    14:00 +34°C° 0 mm 3 mps 753 mmHg 71%
    15:00 +34°C° 0 mm 3 mps 753 mmHg 68%
    16:00 +33°C° 0.5 mm 3 mps 753 mmHg 76%
    17:00 +30°C° 0.5 mm 4 mps 754 mmHg 85%
    18:00 +29°C° 0.5 mm 4 mps 754 mmHg 93%
    19:00 +29°C° 0.8 mm 4 mps 755 mmHg 93%
    20:00 +29°C° 0.8 mm 4 mps 755 mmHg 94%
    21:00 +28°C° 0.8 mm 4 mps 755 mmHg 94%
    22:00 +28°C° 0.9 mm 4 mps 755 mmHg 95%
    23:00 +28°C° 0.9 mm 4 mps 755 mmHg 95%
    Show more